Location: Newark
(25.4297°S, 49.2719°W)
Time: 03:51:58
(UTC+00:00)

Hubble Space Telescope - Pass Details

Date: 28 June 2021
Orbit: 535 x 539 km, 28.5° (Epoch: 28 July)

Event Time Altitude Azimuth Distance (km) Brightness Sun altitude
Rises 21:44:11 0° 325° (NW) 2,660 5.3 -14.8°
Reaches altitude 10° 21:46:59 10° 344° (NNW) 1,776 3.9 -15.4°
Maximum altitude 21:49:49 18° 28° (NNE) 1,349 2.7 -16.0°
Enters shadow 21:51:15 15° 53° (NE) 1,473 2.7 -16.3°
